Location: Great Malvern
(52.1167°N, 2.3167°W)
Time: 01:29:23
(UTC+00:00)

NOSS 3-1 (A) - Pass Details

Date: 18 September 2020
Orbit: 745 x 1467 km, 63.4° (Epoch: 08 October)

Event Time Altitude Azimuth Distance (km) Brightness Sun altitude
Rises 18:53:25 0° 237° (WSW) 3,322 7.1 -6.5°
Reaches altitude 10° 18:55:43 10° 240° (WSW) 2,457 6.4 -6.9°
Maximum altitude 19:01:22 65° 323° (NW) 1,028 3.9 -7.7°
Drops below altitude 10° 19:08:07 10° 45° (NE) 2,922 5.7 -8.7°
Sets 19:11:04 0° 49° (NE) 3,999 6.4 -9.2°
